{"data":{"norad_id":69312,"epoch":"2026-09-20T00:43:34.394016Z","epoch_age_seconds":69609,"freshness":"FRESH","line1":"1 69312U 26119S   26263.03025919  .00006742  00000+0  21093-3 0  9994","line2":"2 69312  97.2834 287.8066 0001245 101.6344 258.5038 15.33449123 18593","mean_motion":15.33449123,"eccentricity":0.0001245,"inclination_deg":97.2834,"raan_deg":287.8066,"arg_perigee_deg":101.6344,"mean_anomaly_deg":258.5038,"bstar":0.00021093,"rev_number":1859,"period_min":93.905952170283,"perigee_km":464.67887070393,"apogee_km":466.38294401286,"semimajor_km":6843.6679073584,"source":"CELESTRAK","updated_at":"2026-09-20T09:00:44.157149Z"}}